EUTELSAT HOTBIRD 13E

导读 | 豆包AI

EUTELSAT HOTBIRD 13E是欧洲通信卫星组织(Eutelsat)运营的热鸟系列通信卫星,于2006年3月11日发射定点于赤道东经13°地球同步轨道。该卫星主要服务欧洲、北非、中东等区域,专注提供数字广播电视传输服务,覆盖免费与加密频道,同时承载数据交互与IP通信业务,是欧洲区域卫星直播电视服务的核心空间基础设施之一。

Basic Information
目录编号:
28946
目录名称:
EUTELSAT HOTBIRD 13E
国际标识:
2006-007B
轨道中心:
EARTH
卫星名称:
EUTELSAT HOTBIRD 13E
卫星全名:
--
卫星状态:
在轨 (已飞行7308 天)
发射日期:
2006-03-11 UTC
国别 :
(EUTE)
星等 :
--
Orbit Information
数据来源 国际轨道数据 AOE轨道数据
星历时间 2026-03-13T17:40:39+0800
15小时前
查看轨道信息
2026-03-13T16:00:00+0800
17小时前
查看轨道信息
半长轴 42779.418km 42779.476km
偏心率 0.0010734 0.0010739
轨道倾角 1.837° 1.837°
近地点辐角 213.936° 214.080°
升交点赤经 85.477° 85.472°
平近点角 333.181° 308.355°
近地点 36355.361km 36355.398km
远地点 36447.201km 36447.28km
周期 1467.615分钟 1467.618分钟
每日圈数 0.981184 0.981182
Detailed Information
使用方式:
暂无
2D Orbit Map
3D Orbit Map
Orbit Altitude Analysis Chart
Orbit Inclination Analysis Chart
Orbit Comprehensive Analysis Chart
View Comprehensive Chart